Погода в Жамберке

Чехия     50°05′12″N   16°27′47″E
В апреле 2022 года жителям России запретили посещать сайт meteo.paraplan.net по решению Генеральной прокуратуры. Аудитория сайта уменьшилась в 10 раз. Владельцы сайта не видят смысла в поддержке погодного сервера в таких условиях. Сайт будет закрыт в октябре.
темп.,
°C
ветер,
м/с
пор.,
м/с
влажн.,
%
обл.,
%
осадки,
мм/ч
давл.,
гПа
погр.,
м
25 сентября, вс
вс2523:00+8вюв2286100 0.0 101520
02:00+9вюв2278100 0.0 101520
05:00+10юв2375100 0.0 101460
08:00+9юв2488100 0.3 1014125
11:00+10юв2389100 0.2 1014214
14:00+12юв348199 0.2 1013385
17:00+13юв357674 0.0 1012392
20:00+9в2291100 0.0 101215
26 сентября, пн
пн2623:00+9вюв21929 0.0 101112
02:00+8юв229549 0.0 101027
05:00+9юв239483 0.0 1009104
08:00+10зюз1395100 0.0 1009213
11:00+11зюз228978 0.1 1009368
14:00+14зсз336576 0.3 10071083
17:00+14юз126291 0.1 1006755
20:00+11ююв2282100 0.1 100625
27 сентября, вт
вт2723:00+10ююв239398 0.9 1005102
02:00+8юв339614 1.0 100447
05:00+7ююв229739 0.0 100256
08:00+8ю129262 0.0 100288
11:00+12з4673100 0.0 1002924
14:00+12зюз4668100 0.1 10011100
17:00+11зюз5878100 0.4 1001748
20:00+8з51085100 0.6 1003513
28 сентября, ср
ср2823:00+7з5985100 0.0 1004563
02:00+5з379272 0.0 1005242
05:00+5юз138988 0.0 1004134
08:00+6ю3583100 0.0 1003238
11:00+9ююз576898 0.0 1002880
14:00+11ююз696687 0.2 10011391
17:00+12зюз5766100 0.6 10001325
20:00+8зюз41083100 0.8 1002659
29 сентября, чт
чт2923:00+7ююз1188100 0.1 100312
02:00+5ю119276 0.1 100410
05:00+7ююв1189100 0.0 100414
08:00+7ююв128699 0.0 100579
11:00+10ю2371100 0.0 1005739
14:00+12ююв3366100 0.0 1005951
17:00+12юв117097 0.1 100572
20:00+10юв2276100 0.1 100730